User: anonymous   Login
Location: Castelbiague
(43.0361°N, 0.9246°E)
Time: 22:09:46
(UTC+00:00)
Language:

NOSS 3-2 (C) - Orbit

View from above orbital plane
View from above orbital plane
View from above satellite
View from above satellite

Ground track
Ground track

The orbit data is extracted from the following two-line orbital elements,

1 28097U 03054C   21270.95073123 0.00000020  00000-0  20245-4 0    02
2 28097  63.4154 283.5153 0444518 359.9741   0.0259 13.40778376    04
Epoch (UTC): 27 September 2021 22:49:03
Eccentricity: 0.0444518
inclination: 63.4154°
perigee height: 773 km
apogee height: 1439 km
right ascension of ascending node: 283.5153°
argument of perigee: 359.9741°
revolutions per day: 13.40778376
mean anomaly at epoch: 0.0259°
orbit number at epoch: 0

The dashed part of the orbit path shows where the satellite is in the earth's shadow,  

DLR